Atqasuk Edward Burnell Sr Mem, AK

8:53 PM AKDT on October 22, 2019 (GMT -0800)
Atqasuk Edward Burnell Sr Mem

Weather History for PATQ - September, 2019

Change the Weather History Date:

Wednesday, September 18, 2019

  Actual Average (WUND) Record (WUND)
Temperature  
Mean Temperature 36 °F -  
Max Temperature 39 °F - - (-1)
Min Temperature 33 °F - - (-1)
Degree Days  
Heating Degree Days 29    
Moisture  
Dew Point 34 °F    
Average Humidity 93    
Maximum Humidity 100    
Minimum Humidity 77    
Precipitation  
Precipitation 0.00 in - - ()
Sea Level Pressure  
Sea Level Pressure 29.61 in    
Wind  
Wind Speed 6 mph (NNW)    
Max Wind Speed 8 mph    
Max Gust Speed -    
Visibility 8 miles    
Events Fog    
Averages and records for this station are not official NWS values.
T = Trace of Precipitation, MM = Missing Value Source: NWS Daily Summary

Daily Weather History Graph

Daily Weather History Graph

Search for Another Location

Airport or City:

Astronomy

Sep. 18, 2019 Rise Set
Actual Time 7:53 AM AKDT 8:51 PM AKDT
Civil Twilight 6:48 AM AKDT 9:55 PM AKDT
Nautical Twilight 5:21 AM AKDT 11:21 PM AKDT
Astronomical Twilight 2:56 AM AKDT 2:14 AM AKDT
Moon 8:58 PM AKDT (9/18) 2:32 PM AKDT (9/18)
Length of Visible Light 15h 06m
Length of Day
12h 58m
Waning Gibbous, 81% of the Moon is Illuminated
Sep 18
Waning Gibbous
Sep 21
Last Quarter
Sep 28
New
Oct 5
First Quarter
Oct 13
Full

Hourly Weather History & Observations

Time (AKDT) Temp. Windchill Dew Point Humidity Pressure Visibility Wind Dir Wind Speed Gust Speed Precip Events Conditions
12:22 AM 35.6 °F 29.9 °F 35.6 °F 100% 29.72 in 10.0 mi NNE 6.9 mph - 0.00 in   Overcast
12:34 AM 35.6 °F 29.9 °F 35.6 °F 100% 29.72 in 10.0 mi North 6.9 mph - 0.00 in   Overcast
12:44 AM 35.6 °F 29.2 °F 35.6 °F 100% 29.72 in 2.5 mi NNE 8.1 mph - 0.00 in   Overcast
12:48 AM 35.6 °F 30.7 °F 35.6 °F 100% 29.71 in 1.0 mi NNE 5.8 mph - 0.00 in   Overcast
12:52 AM 35.6 °F 30.7 °F 35.6 °F 100% 29.71 in 0.5 mi NNE 5.8 mph - 0.00 in Fog Fog
12:56 AM 36.0 °F 31.1 °F 35.1 °F 97% 29.73 in 0.5 mi NNE 5.8 mph - 0.00 in Fog Fog
1:24 AM 35.6 °F 30.7 °F 35.6 °F 100% 29.70 in 0.8 mi NNE 5.8 mph - N/A   Overcast
1:56 AM 36.0 °F 30.3 °F 35.1 °F 97% 29.72 in 0.5 mi NNE 6.9 mph - N/A Fog Fog
2:08 AM 35.6 °F 29.9 °F 35.6 °F 100% 29.69 in 1.0 mi NNE 6.9 mph - N/A   Overcast
2:17 AM 35.6 °F 29.9 °F 35.6 °F 100% 29.69 in 1.5 mi NNE 6.9 mph - N/A   Overcast
2:28 AM 35.6 °F 29.9 °F 35.6 °F 100% 29.68 in 3.0 mi NE 6.9 mph - N/A   Overcast
2:56 AM 36.0 °F 29.6 °F 35.1 °F 97% 29.69 in 10.0 mi NE 8.1 mph - N/A   Overcast
3:03 AM 35.6 °F 29.9 °F 35.6 °F 100% 29.67 in 10.0 mi NE 6.9 mph - N/A   Overcast
3:56 AM 35.1 °F 31.0 °F 35.1 °F 100% 29.68 in 10.0 mi NE 4.6 mph - N/A   Overcast
5:56 AM 35.1 °F 32.2 °F 34.0 °F 96% 29.64 in 2.0 mi NNE 3.5 mph - N/A   Overcast
6:10 AM 35.6 °F 31.7 °F 33.8 °F 93% 29.62 in 9.0 mi North 4.6 mph - N/A   Overcast
6:56 AM 35.1 °F 31.0 °F 34.0 °F 96% 29.63 in 10.0 mi NE 4.6 mph - N/A   Overcast
7:56 AM 35.1 °F 32.2 °F 34.0 °F 96% 29.61 in 10.0 mi North 3.5 mph - N/A   Mostly Cloudy
8:22 AM 35.6 °F 30.7 °F 33.8 °F 93% 29.58 in 10.0 mi North 5.8 mph - N/A   Overcast
8:56 AM 35.1 °F 28.6 °F 33.1 °F 92% 29.60 in 10.0 mi NW 8.1 mph - N/A   Overcast
10:05 AM 33.8 °F 27.0 °F 33.8 °F 100% 29.56 in 10.0 mi NNW 8.1 mph - N/A   Overcast
10:56 AM 34.0 °F 28.8 °F 33.1 °F 96% 29.57 in 10.0 mi NW 5.8 mph - N/A   Overcast
11:27 AM 35.6 °F 30.7 °F 33.8 °F 93% 29.55 in 10.0 mi NW 5.8 mph - N/A   Overcast
11:39 AM 35.6 °F 29.9 °F 33.8 °F 93% 29.55 in 10.0 mi WNW 6.9 mph - N/A   Overcast
11:56 AM 36.0 °F 30.3 °F 34.0 °F 93% 29.57 in 10.0 mi NW 6.9 mph - N/A   Overcast
12:56 PM 37.0 °F 32.4 °F 34.0 °F 89% 29.57 in 10.0 mi NW 5.8 mph - N/A   Overcast
1:26 PM 37.4 °F 32.8 °F 33.8 °F 87% 29.54 in 10.0 mi WNW 5.8 mph - N/A   Overcast
1:34 PM 37.4 °F 32.1 °F 33.8 °F 87% 29.54 in 10.0 mi WNW 6.9 mph - N/A   Overcast
1:53 PM 37.4 °F 33.8 °F 33.8 °F 87% 29.54 in 10.0 mi NW 4.6 mph - N/A   Overcast
1:56 PM 37.0 °F 33.3 °F 34.0 °F 89% 29.56 in 10.0 mi NW 4.6 mph - N/A   Overcast
2:17 PM 37.4 °F 33.8 °F 33.8 °F 87% 29.54 in 10.0 mi WNW 4.6 mph - N/A   Overcast
2:56 PM 37.9 °F - 34.0 °F 86% 29.56 in 8.0 mi Calm Calm - N/A   Overcast
3:49 PM 39.2 °F 37.0 °F 33.8 °F 81% 29.53 in 10.0 mi Variable 3.5 mph - N/A   Overcast
3:56 PM 39.0 °F 36.8 °F 33.1 °F 79% 29.55 in 10.0 mi WNW 3.5 mph - N/A   Overcast
5:56 PM 39.9 °F 36.7 °F 33.1 °F 77% 29.55 in 10.0 mi West 4.6 mph - N/A   Overcast
6:56 PM 39.0 °F 34.8 °F 34.0 °F 82% 29.55 in 10.0 mi NW 5.8 mph - 0.00 in   Overcast
7:56 PM 37.9 °F 35.5 °F 34.0 °F 86% 29.55 in 10.0 mi NW 3.5 mph - N/A   Mostly Cloudy
8:56 PM 37.9 °F 34.4 °F 34.0 °F 86% 29.55 in 10.0 mi NW 4.6 mph - N/A   Overcast
10:56 PM 36.0 °F 33.3 °F 34.0 °F 93% 29.56 in 10.0 mi North 3.5 mph - N/A   Overcast
11:56 PM 36.0 °F 32.1 °F 34.0 °F 93% 29.57 in 10.0 mi SSW 4.6 mph - N/A   Overcast